Mackinac Island, MI

6:29 PM EST on February 09, 2016 (GMT -0500)
Mackinac Island

Weather History for KMCD - October, 2013

Change the Weather History Date:

Saturday, October 12, 2013

  Actual Average Record
Temperature  
Mean Temperature 60 °F -  
Max Temperature 68 °F 53 °F 69 °F (1998)
Min Temperature 51 °F 41 °F 29 °F (1993)
Degree Days  
Heating Degree Days 6    
Growing Degree Days 10 (Base 50)    
Moisture  
Dew Point 51 °F    
Average Humidity 74    
Maximum Humidity 94    
Minimum Humidity 48    
Precipitation  
Precipitation 0.07 in - - ()
Sea Level Pressure  
Sea Level Pressure 30.01 in    
Wind  
Wind Speed 9 mph (SSE)    
Max Wind Speed 14 mph    
Max Gust Speed 21 mph    
Visibility 10 miles    
Events Rain    
Averages and records for this station are not official NWS values.
T = Trace of Precipitation, MM = Missing Value Source: NWS Daily Summary

Daily Weather History Graph

Daily Weather History Graph

Search for Another Location

Airport or City:

Trip Planner

Search our weather history database for the weather conditions in past years. The results will help you decide how hot, cold, wet, or windy it might be!

Date:

Astronomy

Oct. 12, 2013 Rise Set
Actual Time 7:51 AM EDT 6:57 PM EDT
Civil Twilight 7:21 AM EDT 7:27 PM EDT
Nautical Twilight 6:47 AM EDT 8:01 PM EDT
Astronomical Twilight 6:12 AM EDT 8:36 PM EDT
Moon 3:24 PM EDT (10/12) 12:34 AM EDT (10/12)
Length of Visible Light 12h 05m
Length of Day
11h 06m
First Quarter, 58% of the Moon is Illuminated
Oct 12
First Quarter
Oct 18
Full
Oct 26
Last Quarter
Nov 3
New
Nov 10
First Quarter

Hourly Weather History & Observations

Time (EDT) Temp. Dew Point Humidity Pressure Visibility Wind Dir Wind Speed Gust Speed Precip Events Conditions
12:18 AM 53.6 °F 45.5 °F 74% 30.07 in 10.0 mi SE 8.1 mph - N/A   Clear
12:38 AM 52.9 °F 46.0 °F 78% 30.07 in 10.0 mi SE 6.9 mph - N/A   Clear
12:58 AM 52.9 °F 46.6 °F 79% 30.07 in 10.0 mi SSE 8.1 mph - N/A   Clear
1:19 AM 52.7 °F 46.4 °F 79% 30.07 in 10.0 mi SSE 10.4 mph - N/A   Clear
1:38 AM 52.2 °F 46.0 °F 80% 30.06 in 10.0 mi SE 8.1 mph - N/A   Clear
1:58 AM 52.0 °F 46.4 °F 81% 30.06 in 10.0 mi SE 9.2 mph - N/A   Clear
2:19 AM 51.6 °F 45.7 °F 80% 30.06 in 10.0 mi SSE 9.2 mph - N/A   Clear
2:38 AM 51.8 °F 45.5 °F 79% 30.06 in 10.0 mi SE 10.4 mph - N/A   Clear
2:58 AM 52.9 °F 43.7 °F 71% 30.05 in 10.0 mi SSE 10.4 mph 16.1 mph N/A   Clear
3:19 AM 53.1 °F 43.5 °F 70% 30.05 in 10.0 mi SSE 12.7 mph 16.1 mph N/A   Clear
3:38 AM 53.1 °F 43.9 °F 71% 30.05 in 10.0 mi SSE 10.4 mph 16.1 mph N/A   Clear
3:58 AM 53.1 °F 44.6 °F 73% 30.05 in 10.0 mi SE 10.4 mph 16.1 mph N/A   Clear
4:19 AM 53.4 °F 44.8 °F 73% 30.05 in 10.0 mi SE 10.4 mph - N/A   Clear
4:38 AM 53.2 °F 45.0 °F 73% 30.05 in 10.0 mi SE 11.5 mph 17.3 mph N/A   Clear
4:58 AM 52.9 °F 45.0 °F 74% 30.04 in 10.0 mi SE 9.2 mph 16.1 mph N/A   Clear
5:19 AM 53.2 °F 45.1 °F 74% 30.04 in 10.0 mi SSE 11.5 mph 17.3 mph N/A   Clear
5:38 AM 53.8 °F 45.5 °F 74% 30.04 in 10.0 mi SSE 11.5 mph 18.4 mph N/A   Clear
5:58 AM 53.1 °F 46.2 °F 78% 30.04 in 10.0 mi SSE 11.5 mph - N/A   Clear
6:18 AM 53.1 °F 46.9 °F 80% 30.04 in 10.0 mi SSE 9.2 mph - N/A   Clear
6:38 AM 53.8 °F 47.3 °F 79% 30.05 in 10.0 mi SSE 10.4 mph 17.3 mph N/A   Clear
6:59 AM 54.1 °F 46.9 °F 77% 30.04 in 10.0 mi SSE 11.5 mph 18.4 mph N/A   Clear
7:18 AM 54.5 °F 46.8 °F 75% 30.04 in 10.0 mi SSE 9.2 mph 18.4 mph N/A   Clear
7:38 AM 54.9 °F 46.2 °F 73% 30.04 in 10.0 mi SSE 12.7 mph 17.3 mph N/A   Clear
7:59 AM 55.4 °F 45.5 °F 69% 30.04 in 10.0 mi SSE 11.5 mph 16.1 mph N/A   Clear
8:18 AM 55.6 °F 45.1 °F 68% 30.04 in 10.0 mi SSE 10.4 mph 16.1 mph N/A   Clear
8:38 AM 56.1 °F 45.7 °F 68% 30.04 in 10.0 mi SSE 11.5 mph - N/A   Clear
8:59 AM 56.5 °F 45.3 °F 66% 30.04 in 10.0 mi SSE 11.5 mph 17.3 mph N/A   Clear
9:18 AM 57.4 °F 45.1 °F 64% 30.04 in 10.0 mi SSE 11.5 mph 18.4 mph N/A   Clear
9:38 AM 57.6 °F 45.7 °F 65% 30.04 in 10.0 mi SSE 9.2 mph 18.4 mph N/A   Clear
9:59 AM 58.3 °F 45.7 °F 63% 30.04 in 10.0 mi SSE 9.2 mph 17.3 mph N/A   Clear
10:18 AM 59.2 °F 46.0 °F 62% 30.04 in 10.0 mi SSE 8.1 mph - N/A   Clear
10:38 AM 60.3 °F 46.4 °F 60% 30.03 in 10.0 mi SSE 11.5 mph - N/A   Clear
10:58 AM 61.7 °F 46.6 °F 58% 30.03 in 10.0 mi SSE 6.9 mph - N/A   Clear
11:18 AM 62.6 °F 47.1 °F 57% 30.03 in 10.0 mi SSE 4.6 mph - N/A   Clear
11:39 AM 64.4 °F 47.3 °F 54% 30.03 in 10.0 mi SSE 6.9 mph - N/A   Clear
11:58 AM 66.4 °F 48.2 °F 52% 30.02 in 10.0 mi SSE 5.8 mph - N/A   Clear
12:18 PM 67.5 °F 48.0 °F 50% 30.02 in 10.0 mi SSE 8.1 mph - N/A   Clear
12:39 PM 68.4 °F 48.2 °F 48% 30.02 in 10.0 mi SE 8.1 mph - N/A   Clear
12:58 PM 65.3 °F 52.3 °F 63% 30.01 in 10.0 mi ENE 5.8 mph - N/A   Clear
1:18 PM 63.1 °F 53.6 °F 71% 30.01 in 10.0 mi East 4.6 mph - N/A   Clear
1:39 PM 63.5 °F 54.0 °F 71% 30.00 in 10.0 mi East 4.6 mph - N/A   Clear
1:58 PM 63.5 °F 54.3 °F 72% 29.99 in 10.0 mi East 8.1 mph - N/A   Clear
2:18 PM 64.4 °F 53.8 °F 68% 29.98 in 10.0 mi East 6.9 mph - N/A   Clear
2:39 PM 64.2 °F 54.0 °F 69% 29.97 in 10.0 mi East 10.4 mph 17.3 mph N/A   Clear
2:58 PM 64.0 °F 54.3 °F 71% 29.97 in 10.0 mi East 9.2 mph 16.1 mph N/A   Clear
3:18 PM 64.2 °F 54.0 °F 69% 29.96 in 10.0 mi East 10.4 mph 17.3 mph N/A   Clear
3:38 PM 64.8 °F 54.5 °F 69% 29.95 in 10.0 mi East 11.5 mph 18.4 mph N/A   Clear
3:59 PM 64.0 °F 54.5 °F 71% 29.94 in 10.0 mi East 12.7 mph 20.7 mph N/A   Clear
4:19 PM 62.8 °F 54.3 °F 74% 29.94 in 10.0 mi East 10.4 mph 20.7 mph N/A   Clear
4:38 PM 63.1 °F 55.0 °F 75% 29.93 in 10.0 mi East 11.5 mph 18.4 mph N/A   Clear
4:59 PM 61.7 °F 54.9 °F 78% 29.93 in 10.0 mi East 11.5 mph 18.4 mph N/A   Clear
5:19 PM 61.7 °F 54.9 °F 78% 29.93 in 10.0 mi East 10.4 mph - N/A   Clear
5:38 PM 62.1 °F 55.2 °F 78% 29.93 in 10.0 mi ESE 8.1 mph - N/A   Clear
5:59 PM 62.2 °F 55.2 °F 78% 29.94 in 10.0 mi NW 4.6 mph - N/A   Clear
6:19 PM 61.7 °F 55.4 °F 80% 29.96 in 10.0 mi Calm Calm - N/A   Scattered Clouds
6:38 PM 60.8 °F 55.8 °F 83% 29.96 in 10.0 mi SSE 4.6 mph - N/A   Scattered Clouds
6:59 PM 60.4 °F 55.4 °F 83% 29.96 in 10.0 mi South 5.8 mph - N/A   Scattered Clouds
7:19 PM 61.0 °F 55.0 °F 81% 29.97 in 10.0 mi WSW 5.8 mph - N/A   Mostly Cloudy
7:38 PM 62.1 °F 54.9 °F 77% 29.98 in 10.0 mi WSW 8.1 mph - N/A   Overcast
7:59 PM 61.3 °F 54.9 °F 79% 29.98 in 10.0 mi Calm Calm - N/A   Mostly Cloudy
8:18 PM 60.4 °F 54.9 °F 82% 29.98 in 10.0 mi West 4.6 mph - N/A   Scattered Clouds
8:39 PM 59.7 °F 54.9 °F 84% 29.98 in 10.0 mi Calm Calm - N/A   Scattered Clouds
8:59 PM 59.5 °F 55.4 °F 86% 29.98 in 10.0 mi Calm Calm - N/A   Overcast
9:18 PM 61.3 °F 56.5 °F 84% 29.99 in 10.0 mi WSW 4.6 mph - N/A   Overcast
9:39 PM 61.7 °F 58.3 °F 89% 29.98 in 7.0 mi SSW 3.5 mph - 0.02 in Rain Rain
9:59 PM 61.7 °F 59.4 °F 92% 29.98 in 7.0 mi South 4.6 mph - 0.05 in Rain Rain
10:18 PM 60.6 °F 59.0 °F 94% 29.99 in 10.0 mi SW 4.6 mph - 0.02 in Rain Light Rain
10:39 PM 61.7 °F 59.4 °F 92% 29.98 in 10.0 mi South 6.9 mph - 0.02 in   Overcast
10:59 PM 61.9 °F 59.4 °F 91% 29.99 in 10.0 mi South 8.1 mph - 0.02 in   Overcast
11:18 PM 61.9 °F 59.2 °F 91% 29.99 in 10.0 mi SSW 6.9 mph - N/A   Overcast
11:39 PM 61.3 °F 59.2 °F 93% 29.99 in 10.0 mi SSW 8.1 mph - N/A   Overcast
11:58 PM 61.7 °F 59.0 °F 91% 30.00 in 10.0 mi SW 13.8 mph 19.6 mph N/A   Overcast